Radiation Dose at Monitoring Post of Fukushima Daini Nuclear Power Station
Date,Time,MP-1(microSv/h),MP-2(microSv/h),MP-3(microSv/h),MP-4(microSv/h),MP-5(microSv/h),MP-6(microSv/h),MP-7(microSv/h),Wind Direction,Wind Velocity(m/s),Rain
2017/03/17,00:00,0.382,0.234,0.392,0.361,0.331,0.191,0.162,east-northeast,2.1,No
2017/03/17,00:10,0.382,0.234,0.391,0.360,0.331,0.192,0.162,north-northeast,2.2,No
2017/03/17,00:20,0.382,0.233,0.391,0.362,0.329,0.191,0.161,north-northwest,0.8,No
2017/03/17,00:30,0.383,0.232,0.392,0.360,0.331,0.191,0.161,north,2.0,No
2017/03/17,00:40,0.382,0.233,0.391,0.361,0.331,0.192,0.161,north-northeast,3.4,No
2017/03/17,00:50,0.382,0.233,0.391,0.361,0.330,0.192,0.162,north-northeast,3.9,No
2017/03/17,01:00,0.383,0.233,0.391,0.361,0.331,0.191,0.160,north,3.0,No
2017/03/17,01:10,0.382,0.232,0.392,0.362,0.331,0.190,0.161,north,2.7,No
2017/03/17,01:20,0.383,0.232,0.392,0.359,0.330,0.191,0.161,north,3.1,No
2017/03/17,01:30,0.383,0.232,0.391,0.361,0.330,0.192,0.162,north,2.0,No
2017/03/17,01:40,0.382,0.232,0.391,0.362,0.330,0.191,0.161,north,2.0,No
2017/03/17,01:50,0.383,0.233,0.393,0.361,0.331,0.191,0.162,north-northeast,1.7,No
2017/03/17,02:00,0.383,0.234,0.393,0.361,0.330,0.192,0.161,northeast,1.2,No
2017/03/17,02:10,0.384,0.232,0.392,0.361,0.329,0.191,0.162,northeast,1.7,No
2017/03/17,02:20,0.382,0.233,0.393,0.360,0.330,0.190,0.161,northeast,3.1,No
2017/03/17,02:30,0.382,0.233,0.392,0.361,0.331,0.192,0.162,northeast,2.6,No
2017/03/17,02:40,0.384,0.232,0.393,0.360,0.329,0.192,0.162,north-northeast,3.4,No
2017/03/17,02:50,0.383,0.233,0.392,0.361,0.331,0.191,0.162,northeast,5.4,No
2017/03/17,03:00,0.384,0.234,0.392,0.359,0.329,0.192,0.162,north-northeast,6.7,No
2017/03/17,03:10,0.383,0.233,0.393,0.362,0.330,0.191,0.161,north-northeast,5.9,No
2017/03/17,03:20,0.382,0.232,0.391,0.360,0.329,0.192,0.162,north-northeast,3.9,No
2017/03/17,03:30,0.382,0.232,0.392,0.361,0.330,0.190,0.161,north,4.5,No
2017/03/17,03:40,0.384,0.233,0.391,0.360,0.330,0.193,0.161,north,4.8,No
2017/03/17,03:50,0.383,0.234,0.391,0.362,0.331,0.191,0.162,north,4.7,No
2017/03/17,04:00,0.383,0.233,0.391,0.361,0.330,0.192,0.160,north-northwest,3.4,No
2017/03/17,04:10,0.383,0.232,0.392,0.361,0.330,0.191,0.161,north,3.5,No
2017/03/17,04:20,0.383,0.233,0.392,0.360,0.330,0.192,0.161,north,4.5,No
2017/03/17,04:30,0.383,0.232,0.392,0.360,0.330,0.191,0.162,north,3.7,No
2017/03/17,04:40,0.383,0.234,0.391,0.361,0.330,0.190,0.161,north-northwest,4.3,No
2017/03/17,04:50,0.384,0.233,0.392,0.360,0.330,0.191,0.162,north-northwest,3.3,No
2017/03/17,05:00,0.382,0.235,0.392,0.360,0.331,0.192,0.161,north-northwest,2.7,No
2017/03/17,05:10,0.382,0.232,0.391,0.361,0.329,0.192,0.162,north-northwest,3.7,No
2017/03/17,05:20,0.383,0.232,0.393,0.361,0.330,0.190,0.162,northwest,3.1,No
2017/03/17,05:30,0.382,0.233,0.391,0.361,0.331,0.191,0.163,north-northwest,3.9,No
2017/03/17,05:40,0.384,0.232,0.392,0.362,0.330,0.190,0.162,north,6.2,No
2017/03/17,05:50,0.384,0.233,0.390,0.361,0.330,0.192,0.162,north-northwest,6.0,No
2017/03/17,06:00,0.383,0.232,0.390,0.362,0.330,0.191,0.162,north-northwest,5.4,No
2017/03/17,06:10,0.384,0.232,0.393,0.360,0.329,0.191,0.162,north-northwest,4.9,No
2017/03/17,06:20,0.383,0.232,0.392,0.361,0.333,0.191,0.161,north,4.0,No
2017/03/17,06:30,0.383,0.233,0.392,0.362,0.330,0.192,0.162,north,4.2,No
2017/03/17,06:40,0.384,0.233,0.391,0.359,0.329,0.192,0.161,north-northwest,5.2,No
2017/03/17,06:50,0.384,0.233,0.393,0.362,0.330,0.193,0.161,north-northwest,5.8,No
2017/03/17,07:00,0.383,0.232,0.390,0.361,0.331,0.191,0.160,north-northwest,5.8,No
2017/03/17,07:10,0.382,0.232,0.392,0.361,0.330,0.191,0.161,north-northwest,5.5,No
2017/03/17,07:20,0.383,0.232,0.393,0.361,0.331,0.192,0.161,north,4.6,No
2017/03/17,07:30,0.383,0.233,0.392,0.360,0.331,0.192,0.161,north,4.5,No
2017/03/17,07:40,0.384,0.233,0.392,0.360,0.331,0.191,0.161,north-northeast,3.5,No
2017/03/17,07:50,0.383,0.232,0.391,0.360,0.332,0.192,0.161,north,3.5,No
2017/03/17,08:00,0.383,0.232,0.391,0.359,0.330,0.191,0.160,north,4.2,No
2017/03/17,08:10,0.384,0.232,0.392,0.361,0.330,0.191,0.161,north,4.1,No
2017/03/17,08:20,0.383,0.232,0.392,0.359,0.332,0.192,0.160,north,3.8,No
2017/03/17,08:30,0.384,0.231,0.393,0.358,0.331,0.191,0.162,north-northwest,4.2,No
2017/03/17,08:40,0.385,0.233,0.389,0.360,0.330,0.191,0.161,north-northwest,3.6,No
2017/03/17,08:50,0.383,0.231,0.391,0.359,0.332,0.191,0.162,north-northwest,6.1,No
2017/03/17,09:00,0.383,0.231,0.391,0.362,0.332,0.190,0.160,north-northwest,4.0,No
2017/03/17,09:10,0.382,0.232,0.391,0.358,0.329,0.189,0.162,northwest,4.3,No
2017/03/17,09:20,0.384,0.231,0.390,0.361,0.332,0.190,0.161,north-northwest,4.0,No
2017/03/17,09:30,0.381,0.231,0.391,0.358,0.329,0.191,0.161,north-northwest,5.1,No
2017/03/17,09:40,0.382,0.232,0.393,0.361,0.331,0.191,0.160,northwest,3.6,No
2017/03/17,09:50,0.381,0.232,0.392,0.359,0.329,0.190,0.162,northwest,5.4,No
2017/03/17,10:00,0.380,0.233,0.391,0.360,0.330,0.190,0.161,north-northwest,5.8,No
2017/03/17,10:10,0.383,0.233,0.392,0.360,0.330,0.190,0.161,west-northwest,6.4,No
2017/03/17,10:20,0.379,0.233,0.391,0.361,0.329,0.191,0.161,north-northwest,6.0,No
2017/03/17,10:30,0.383,0.233,0.390,0.360,0.330,0.191,0.162,north-northwest,6.0,No
2017/03/17,10:40,0.380,0.232,0.392,0.359,0.329,0.190,0.161,north-northwest,6.1,No
2017/03/17,10:50,0.382,0.232,0.389,0.362,0.332,0.190,0.162,west-northwest,3.5,No
2017/03/17,11:00,0.383,0.233,0.392,0.360,0.330,0.191,0.161,west-northwest,6.7,No
2017/03/17,11:10,0.381,0.233,0.391,0.362,0.333,0.190,0.163,northwest,6.4,No
2017/03/17,11:20,0.384,0.232,0.390,0.359,0.329,0.191,0.161,northwest,4.7,No
2017/03/17,11:30,0.381,0.233,0.391,0.362,0.330,0.191,0.162,north-northwest,6.3,No
2017/03/17,11:40,0.385,0.233,0.390,0.360,0.330,0.191,0.163,northwest,5.9,No
2017/03/17,11:50,0.381,0.233,0.392,0.363,0.333,0.191,0.162,west-northwest,4.3,No
2017/03/17,12:00,0.382,0.234,0.392,0.360,0.329,0.191,0.162,northwest,5.0,No
2017/03/17,12:10,0.386,0.233,0.391,0.363,0.333,0.191,0.162,west-northwest,4.5,No
2017/03/17,12:20,0.383,0.234,0.392,0.360,0.329,0.192,0.163,northwest,5.6,No
2017/03/17,12:30,0.385,0.233,0.390,0.363,0.332,0.191,0.162,west-northwest,4.2,No
2017/03/17,12:40,0.382,0.233,0.393,0.361,0.330,0.192,0.163,west-northwest,5.3,No
2017/03/17,12:50,0.385,0.233,0.391,0.364,0.331,0.191,0.162,northwest,3.8,No
2017/03/17,13:00,0.381,0.233,0.391,0.362,0.331,0.191,0.162,northwest,4.2,No
2017/03/17,13:10,0.382,0.234,0.391,0.362,0.332,0.191,0.162,northwest,3.9,No
2017/03/17,13:20,0.384,0.233,0.392,0.360,0.333,0.192,0.162,west-northwest,2.7,Yes
2017/03/17,13:30,0.383,0.235,0.393,0.361,0.332,0.192,0.163,north,3.9,No
2017/03/17,13:40,0.385,0.233,0.391,0.363,0.334,0.191,0.162,northwest,3.0,No
2017/03/17,13:50,0.384,0.236,0.392,0.361,0.331,0.192,0.163,north,3.1,No
2017/03/17,14:00,0.383,0.233,0.392,0.363,0.334,0.191,0.162,north-northwest,1.0,No
2017/03/17,14:10,0.386,0.234,0.394,0.362,0.333,0.192,0.162,west-northwest,1.5,Yes
2017/03/17,14:20,0.385,0.233,0.394,0.363,0.332,0.193,0.162,west-northwest,5.1,Yes
2017/03/17,14:30,0.385,0.235,0.393,0.362,0.334,0.192,0.163,west-northwest,4.5,Yes
2017/03/17,14:40,0.386,0.232,0.393,0.360,0.331,0.192,0.162,west-northwest,6.7,Yes
2017/03/17,14:50,0.383,0.233,0.393,0.362,0.332,0.191,0.162,west-northwest,8.1,Yes
2017/03/17,15:00,0.385,0.234,0.393,0.362,0.332,0.191,0.164,west-northwest,3.9,Yes
2017/03/17,15:10,0.385,0.235,0.392,0.361,0.330,0.192,0.163,west-northwest,3.7,No
2017/03/17,15:20,0.384,0.234,0.393,0.362,0.333,0.192,0.164,northwest,3.6,No
2017/03/17,15:30,0.385,0.236,0.392,0.361,0.333,0.191,0.163,west,5.6,Yes
2017/03/17,15:40,0.385,0.235,0.392,0.365,0.332,0.193,0.163,west,5.1,Yes
2017/03/17,15:50,0.383,0.233,0.396,0.365,0.334,0.194,0.166,west,6.1,Yes
2017/03/17,16:00,0.385,0.234,0.395,0.364,0.333,0.194,0.165,west,6.5,Yes
2017/03/17,16:10,0.385,0.235,0.395,0.364,0.332,0.193,0.164,west-northwest,7.0,No
2017/03/17,16:20,0.384,0.235,0.395,0.365,0.335,0.193,0.164,west-northwest,5.5,No
2017/03/17,16:30,0.386,0.234,0.393,0.364,0.331,0.193,0.164,west-northwest,6.1,No
2017/03/17,16:40,0.386,0.234,0.393,0.364,0.332,0.194,0.164,west-northwest,6.1,No
2017/03/17,16:50,0.385,0.235,0.394,0.365,0.333,0.193,0.163,northwest,4.7,No
2017/03/17,17:00,0.384,0.234,0.395,0.362,0.332,0.193,0.163,west,9.1,Yes
2017/03/17,17:10,0.385,0.233,0.392,0.362,0.333,0.193,0.163,west-northwest,6.6,No
2017/03/17,17:20,0.384,0.234,0.393,0.362,0.335,0.193,0.165,west-northwest,5.1,No
2017/03/17,17:30,0.386,0.236,0.394,0.363,0.333,0.193,0.163,west-northwest,5.2,No
2017/03/17,17:40,0.384,0.234,0.394,0.362,0.332,0.193,0.164,west-northwest,5.0,No
2017/03/17,17:50,0.384,0.234,0.394,0.365,0.332,0.192,0.164,west-northwest,5.6,No
2017/03/17,18:00,0.384,0.235,0.393,0.362,0.333,0.193,0.162,northwest,4.6,No
2017/03/17,18:10,0.383,0.235,0.394,0.362,0.333,0.191,0.163,northwest,5.7,No
2017/03/17,18:20,0.386,0.234,0.393,0.364,0.332,0.193,0.163,west-northwest,5.6,No
2017/03/17,18:30,0.384,0.234,0.393,0.364,0.331,0.193,0.163,west-northwest,4.8,No
2017/03/17,18:40,0.384,0.235,0.392,0.364,0.333,0.192,0.163,west,5.1,No
2017/03/17,18:50,0.385,0.233,0.395,0.363,0.334,0.193,0.162,west-northwest,2.5,No
2017/03/17,19:00,0.385,0.234,0.394,0.363,0.333,0.192,0.163,north-northwest,1.4,No
2017/03/17,19:10,0.385,0.235,0.393,0.363,0.332,0.192,0.163,west-northwest,1.5,No
2017/03/17,19:20,0.384,0.234,0.394,0.364,0.332,0.193,0.163,west,2.2,No
2017/03/17,19:30,0.385,0.235,0.395,0.363,0.331,0.192,0.163,west-northwest,2.0,No
2017/03/17,19:40,0.385,0.234,0.394,0.363,0.332,0.192,0.162,west,4.3,No
2017/03/17,19:50,0.386,0.234,0.394,0.363,0.332,0.193,0.162,west-northwest,2.6,No
2017/03/17,20:00,0.384,0.235,0.394,0.362,0.332,0.192,0.163,west,3.0,No
2017/03/17,20:10,0.384,0.234,0.393,0.363,0.332,0.193,0.163,west-southwest,3.1,No
2017/03/17,20:20,0.385,0.234,0.395,0.364,0.331,0.192,0.163,west,4.2,No
2017/03/17,20:30,0.386,0.234,0.394,0.365,0.332,0.192,0.163,west-southwest,4.6,No
2017/03/17,20:40,0.385,0.234,0.394,0.363,0.332,0.193,0.163,west-southwest,3.8,No
2017/03/17,20:50,0.385,0.235,0.393,0.363,0.333,0.192,0.163,west,3.6,No
2017/03/17,21:00,0.384,0.234,0.393,0.363,0.333,0.192,0.163,northwest,4.2,No
2017/03/17,21:10,0.385,0.234,0.395,0.363,0.331,0.192,0.162,north-northwest,6.7,No
2017/03/17,21:20,0.385,0.234,0.396,0.364,0.331,0.193,0.162,northwest,7.5,No
2017/03/17,21:30,0.385,0.234,0.394,0.363,0.332,0.192,0.162,northwest,8.0,No
2017/03/17,21:40,0.385,0.233,0.394,0.363,0.332,0.193,0.163,north-northwest,6.7,No
2017/03/17,21:50,0.385,0.233,0.394,0.363,0.331,0.192,0.162,north-northwest,5.8,No
2017/03/17,22:00,0.386,0.234,0.394,0.363,0.334,0.194,0.163,northwest,6.8,No
2017/03/17,22:10,0.385,0.235,0.394,0.364,0.332,0.193,0.162,northwest,7.5,No
2017/03/17,22:20,0.385,0.234,0.393,0.364,0.332,0.193,0.163,north-northwest,5.6,No
2017/03/17,22:30,0.384,0.234,0.393,0.364,0.332,0.193,0.163,northwest,5.0,No
2017/03/17,22:40,0.386,0.234,0.395,0.365,0.332,0.192,0.163,north-northwest,4.6,No
2017/03/17,22:50,0.386,0.235,0.394,0.363,0.331,0.192,0.163,northwest,5.2,No
2017/03/17,23:00,0.385,0.233,0.393,0.362,0.333,0.193,0.163,west-northwest,5.0,No
2017/03/17,23:10,0.386,0.233,0.395,0.364,0.332,0.192,0.163,west-northwest,6.0,No
2017/03/17,23:20,0.387,0.235,0.395,0.362,0.333,0.192,0.164,west-northwest,5.5,No
2017/03/17,23:30,0.386,0.232,0.394,0.362,0.333,0.192,0.163,west-northwest,3.4,No
2017/03/17,23:40,0.384,0.235,0.394,0.363,0.332,0.192,0.164,west-northwest,0.9,No
2017/03/17,23:50,0.384,0.236,0.394,0.364,0.332,0.192,0.163,-,CALM,No
